CAPE
2217 1145 710 307 46 0 0 0 0 1 0 0 0 0 1 5 0 0 0 0 0 0 0 0 0 0 0 0 0 0 0 0 5 0 0 0 0 0 0 0 0 0 0
1421 725 335 50 0 0 0 0 0 0 0 0 0 3 0 0 0 0 0 0 0 0 0 0 0 0 0 0 0 0 0 3 13 6 0 0 0 0 0 0 0 0 0
821 314 3 0 0 0 0 0 0 0 0 1 3 0 0 0 0 0 0 0 0 0 0 0 0 0 0 0 1 2 2 12 23 14 1 1 0 12 3 0 0 0 0
225 6 0 0 0 0 0 0 0 0 21 7 1 0 0 0 0 0 0 0 0 0 0 0 0 0 0 2 2 5 7 8 20 33 8 5 10 22 144 22 0 0 0
1 0 0 0 0 0 0 0 0 0 2 24 1 0 0 0 0 0 0 0 0 0 0 0 0 14 75 45 23 9 4 6 13 22 15 16 25 45 115 106 37 5 0
0 0 0 0 0 0 0 0 0 3 20 0 0 0 0 0 0 0 0 0 0 0 0 0 3 34 26 29 25 16 12 9 3 8 11 23 33 27 48 159 214 124 103
0 0 0 0 0 0 0 0 0 18 22 0 0 0 0 0 0 0 0 0 0 0 0 0 3 27 23 14 11 11 10 12 20 7 8 10 12 28 74 184 263 211 143
0 0 0 0 0 0 0 0 22 35 9 1 0 0 0 0 0 0 0 0 0 0 0 0 5 16 6 8 6 6 6 5 2 6 6 3 3 4 160 176 307 203 97
0 0 0 0 0 0 0 6 4 9 5 33 0 17 0 0 0 0 0 0 0 0 1 1 11 14 0 1 3 2 2 2 1 0 0 0 0 0 127 72 158 166 191
0 0 0 0 0 0 0 4 4 43 27 63 57 0 1 0 0 0 0 0 0 1 1 0 3 0 0 0 2 2 3 2 4 4 0 0 0 0 0 17 60 70 92
0 0 0 0 0 0 51 19 45 40 74 109 53 2 0 0 0 0 0 0 0 1 2 1 3 0 0 0 0 1 1 0 9 11 2 3 3 3 0 0 37 141 155
0 0 10 0 12 34 136 111 94 57 100 58 8 0 0 0 0 0 0 0 0 0 1 1 0 0 1 0 0 0 0 2 2 2 2 2 10 5 3 1 7 1 1
0 0 0 19 17 53 45 89 86 19 36 39 6 0 0 0 0 0 0 0 0 0 0 0 0 0 0 2 0 0 0 2 3 4 4 5 5 4 4 2 4 4 4
0 0 0 0 0 0 0 6 29 70 77 6 0 0 0 0 0 0 0 0 0 0 0 0 0 0 0 0 4 1 1 0 0 0 1 4 2 4 4 3 3 1 1
0 0 0 0 0 0 0 0 0 0 0 0 0 0 0 0 0 0 0 0 0 0 0 0 0 0 0 0 0 0 0 0 1 0 0 0 0 0 0 0 0 0 0
0 0 0 0 0 0 0 0 0 0 0 0 0 0 0 0 0 0 0 0 0 0 0 0 0 0 0 0 0 0 0 0 0 0 0 0 1 0 0 0 0 0 0
0 0 0 0 0 0 0 0 0 0 0 0 0 0 0 0 0 0 0 0 0 0 0 0 0 0 0 0 0 0 0 0 0 0 0 0 0 0 0 0 0 0 0
0 0 0 0 0 0 1 0 0 0 0 0 0 0 0 0 0 0 0 0 0 0 0 0 0 0 0 0 0 0 0 0 0 0 0 0 0 0 0 0 0 0 0
0 0 0 0 0 0 0 0 0 0 0 0 0 0 0 0 0 0 0 0 0 0 0 0 0 0 0 0 0 0 0 0 0 0 0 0 0 0 0 0 0 0 0
0 0 0 0 3 0 0 0 0 0 0 0 0 0 0 0 0 0 0 0 0 0 0 0 0 0 0 0 0 0 0 0 0 0 0 0 0 0 0 0 0 0 0
0 0 3 3 0 1 19 8 0 1 8 1 1 0 0 0 0 0 0 0 0 0 0 0 0 0 0 0 0 0 0 0 0 0 0 0 0 0 0 0 0 0 0
0 0 0 0 0 1 2 0 0 0 0 0 0 0 0 0 0 0 0 0 0 0 0 0 0 0 0 0 0 0 0 0 0 0 0 0 0 0 0 0 0 0 0
0 0 0 0 0 0 0 0 0 7 19 0 0 0 0 0 0 0 0 0 0 0 0 0 0 0 0 0 0 0 0 0 0 0 0 0 0 0 0 0 0 0 0
0 0 0 0 0 0 2 12 2 5 0 0 0 0 0 0 0 0 0 0 0 0 0 0 0 0 0 0 0 0 0 0 0 0 0 0 0 0 0 0 0 0 0
0 0 0 0 0 0 0 0 0 0 0 0 0 0 0 0 0 0 0 0 0 0 0 0 0 0 0 0 0 0 0 0 0 0 0 0 0 0 0 0 0 0 0
0 1 1 1 0 0 0 0 0 0 0 0 0 0 0 0 0 0 0 0 0 0 0 0 0 0 0 0 0 0 0 0 0 0 0 0 0 0 0 0 0 0 0
CIN
-281 -380 -419 -487 -554 0 0 0 0 -179 0 0 0 0 -221 -224 0 0 0 0 0 0 0 0 0 0 0 0 0 0 0 0 -1 0 0 0 0 0 0 0 0 0 0
-386 -432 -486 -618 0 0 0 0 -26 0 0 0 0 -136 -55 0 0 0 0 0 0 0 0 0 0 0 0 0 0 0 0 -1 -4 -2 0 0 0 0 0 0 0 0 0
-472 -562 -263 0 0 0 0 0 0 0 0 -78 -112 0 0 0 0 0 0 0 0 0 0 0 0 0 0 0 -1 -1 -4 -4 -5 -4 -1 -4 0 -3 -16 0 0 0 0
-636 -245 0 0 0 0 0 0 0 0 -339 -356 -171 0 0 0 0 0 0 0 0 0 0 0 0 0 -1 -2 -1 -1 -2 -2 -3 -2 -1 -2 -2 -3 -159 -135 0 0 0
-185 0 0 0 0 0 0 0 0 0 -170 -275 -59 0 0 0 0 0 0 0 0 0 0 0 0 -2 0 -1 0 -1 -1 0 -1 0 0 -2 -1 -2 -159 -100 -59 -137 0
0 0 0 0 0 0 0 0 0 -169 -287 -1 0 0 0 0 0 0 0 0 0 0 0 0 -1 -1 0 0 0 0 0 0 0 0 0 0 -1 -2 -179 -56 -3 -12 -42
0 0 0 0 0 0 0 0 0 -243 -221 0 0 0 0 0 0 0 0 0 0 0 0 -2 -1 0 0 0 0 0 0 0 0 0 0 0 0 -4 -65 -19 -10 -31 -46
0 0 0 0 0 0 0 0 -223 -188 -158 -100 0 0 0 0 0 0 0 0 0 0 0 0 -1 0 -1 0 0 0 0 0 0 0 0 -1 -2 -1 -40 -19 -43 -55 -92
0 0 0 0 0 0 0 -317 -213 -216 -127 -178 0 -143 0 0 0 0 0 0 0 0 0 -1 -1 0 0 0 0 0 0 0 0 0 0 0 0 0 -43 -21 -14 -16 -61
0 0 0 0 0 0 0 -219 -195 -151 -114 -124 -95 0 -30 0 0 0 0 0 0 0 0 0 -3 -1 0 0 0 0 0 0 0 0 0 0 0 0 0 -7 -46 -62 -87
0 0 0 0 0 0 -220 -202 -149 -172 -116 -79 -142 -164 0 0 0 0 0 0 0 0 0 0 -35 0 0 0 0 0 0 0 -68 -56 0 0 0 -38 -7 0 -83 -60 -56
0 0 -248 -20 -162 -184 -133 -94 -112 -155 -119 -100 -133 0 0 0 0 0 0 0 0 0 0 0 -1 0 0 0 0 0 0 0 0 0 0 0 -15 -15 -8 -32 -30 -1 0
0 0 0 -213 -214 -232 -138 -161 -201 -130 -118 -106 -196 0 0 0 0 0 0 0 0 0 0 0 0 0 0 -36 0 0 0 -3 0 0 0 0 0 0 0 0 0 0 0
0 0 0 0 0 0 0 -237 -173 -111 -124 -183 0 0 0 0 0 0 0 0 0 0 0 0 0 0 0 0 -3 -1 -1 -2 -3 0 -3 0 0 0 0 -1 0 0 0
0 0 0 0 0 0 0 0 0 0 0 0 0 0 0 0 0 0 0 0 0 0 0 0 0 0 0 0 0 0 0 0 -1 0 0 0 0 0 0 0 0 0 0
0 0 0 0 0 0 0 0 0 0 0 0 0 0 0 0 0 0 0 0 0 0 0 0 0 0 0 0 0 0 0 0 0 0 0 0 0 0 0 0 0 0 0
0 0 0 0 0 0 0 0 0 0 0 0 0 0 0 0 0 0 0 0 0 0 0 0 0 0 0 0 0 0 0 0 0 0 0 0 0 0 0 0 0 0 0
0 0 0 0 0 0 -54 0 0 0 0 0 0 0 0 0 0 0 0 0 0 0 0 0 0 0 0 0 0 0 0 0 0 0 0 0 0 0 0 0 0 0 0
0 0 0 0 0 -40 0 0 0 0 0 0 0 0 0 0 0 0 0 0 0 0 0 0 0 0 0 0 0 0 0 0 0 0 0 0 0 0 0 0 0 0 0
0 0 0 0 -191 0 0 0 0 0 0 0 0 0 0 0 0 0 0 0 0 0 0 0 0 0 0 0 0 0 0 0 0 0 0 0 0 0 0 0 0 0 0
0 0 -102 -217 0 -89 -205 -221 0 -178 -170 -133 -92 0 0 0 0 0 0 0 0 0 0 0 0 0 0 0 0 0 0 0 0 0 0 0 0 0 0 0 0 0 0
0 0 -54 -17 0 -159 -212 0 0 0 0 0 0 0 0 0 0 0 0 0 0 0 0 0 0 0 0 0 0 0 0 0 0 0 0 0 0 0 0 0 0 0 0
0 0 0 0 0 0 0 0 0 -110 -75 -47 0 0 0 0 0 0 0 0 0 0 0 0 0 0 0 0 0 0 0 0 0 0 0 0 0 0 0 0 0 0 0
0 0 0 0 0 0 -100 -97 -18 -97 0 0 0 0 0 0 0 0 0 0 0 0 0 0 0 0 0 0 0 0 0 0 0 0 0 0 0 0 0 0 0 0 0
0 -3 -9 -9 0 0 0 0 0 0 0 0 0 0 0 0 0 0 0 0 0 0 0 0 0 0 0 0 0 0 0 0 0 0 0 0 0 0 0 0 0 0 0
0 -26 -55 -39 -5 0 0 0 0 0 0 0 0 0 0 0 0 0 0 0 0 0 0 0 0 0 0 0 0 0 0 0 0 0 0 0 0 0 0 0 0 0 0
Wind_Speed
10 9 10 8 7 7 6 5 3 2 4 4 4 5 5 6 5 4 6 6 5 6 6 8 12 15 13 12 12 12 13 12 14 18 12 9 8 9 8 9 11 8 5
12 9 8 8 6 6 5 6 5 5 5 5 3 4 6 6 5 5 6 5 6 8 10 12 16 13 16 16 13 17 15 16 14 20 15 11 11 10 9 9 9 7 8
13 11 8 7 7 7 7 6 5 5 5 5 5 3 5 6 5 5 3 6 6 9 13 15 17 17 18 16 18 16 14 12 13 13 17 10 11 11 7 8 6 8 7
11 10 8 6 6 6 6 6 6 5 4 3 1 2 3 4 3 2 5 7 10 12 14 15 18 19 21 21 18 18 15 14 12 11 14 12 12 12 10 7 4 6 9
11 10 7 6 4 4 6 6 5 3 3 2 2 3 4 4 1 4 5 8 12 14 14 16 19 23 32 27 17 17 14 13 12 11 13 11 11 11 9 5 9 6 9
10 8 7 6 6 7 7 5 4 3 2 3 1 2 5 3 5 8 9 10 13 13 14 18 19 25 21 26 28 27 21 13 14 11 10 12 12 11 9 9 8 6 7
13 11 10 9 8 7 6 5 4 2 2 3 2 3 5 2 7 8 14 9 12 12 15 18 18 15 23 17 21 23 22 24 24 13 14 13 12 9 10 10 8 7 7
11 9 8 8 8 7 6 4 3 2 3 1 4 5 4 4 6 8 14 8 10 13 14 18 20 20 21 20 16 13 12 12 15 14 17 16 14 12 8 9 9 6 2
10 9 9 6 6 6 6 5 4 4 2 2 4 5 5 4 6 9 9 6 9 14 13 16 19 21 34 36 13 8 9 11 14 22 23 23 23 20 9 4 4 4 4
12 10 7 7 7 7 6 5 3 3 4 2 5 3 7 4 6 9 7 3 8 10 12 14 20 25 35 36 16 6 9 13 10 11 10 16 16 15 17 9 3 4 2
6 6 6 5 7 6 5 4 4 4 3 5 4 4 4 2 5 10 11 5 4 9 9 11 13 28 29 29 22 14 10 9 9 3 3 5 7 7 7 7 6 5 3
6 5 2 4 4 4 5 4 5 5 6 6 2 1 2 2 6 8 11 11 9 5 9 10 12 23 24 25 23 26 23 14 10 11 10 8 5 3 3 4 4 6 5
8 8 7 5 7 7 5 8 2 3 3 4 3 3 0 3 4 8 9 12 11 6 6 11 19 16 20 18 27 27 23 14 13 12 10 9 9 7 9 9 9 9 11
11 9 9 7 6 6 3 4 4 3 3 3 4 4 0 2 3 4 5 5 9 8 11 8 13 10 15 14 16 17 14 13 13 10 10 10 10 11 11 8 6 6 7
11 8 6 5 7 2 4 3 0 1 3 6 4 5 4 2 3 4 5 4 4 5 6 4 7 9 11 12 11 13 12 12 12 10 11 11 11 10 11 8 7 6 7
9 6 7 4 2 2 1 2 7 5 2 6 7 5 1 4 4 6 6 9 11 10 6 6 7 8 9 10 11 11 12 15 12 11 10 10 9 9 8 8 6 7 7
8 5 3 2 1 2 2 4 4 3 7 6 7 6 5 6 6 8 10 7 10 7 5 7 7 8 8 8 8 9 10 10 11 11 11 10 9 7 8 8 6 4 6
5 6 3 0 3 5 6 5 6 6 6 4 3 4 6 3 6 7 10 7 5 7 4 5 6 7 7 8 8 8 9 9 10 10 10 10 10 8 7 7 8 8 7
5 4 4 5 6 5 4 6 6 5 4 5 3 1 5 2 3 4 6 2 3 5 4 5 6 7 7 7 7 7 8 8 9 9 9 9 9 9 8 8 7 10 7
4 5 4 4 4 3 4 6 5 6 5 4 3 4 4 4 1 1 2 2 4 4 4 5 5 6 7 7 7 7 7 8 8 8 8 8 8 8 8 8 8 7 6
3 3 6 3 3 4 5 6 6 7 5 4 2 2 9 6 5 2 2 4 4 4 5 4 4 5 5 5 6 6 7 6 7 7 7 7 7 7 7 7 7 7 7
3 3 2 3 3 4 4 4 4 5 5 5 4 3 10 6 5 3 4 5 4 5 4 5 5 4 3 5 5 5 6 6 7 7 7 7 7 7 6 6 6 6 7
3 3 4 3 2 3 4 3 4 4 4 4 5 6 5 5 4 4 5 5 5 5 5 4 4 4 3 4 4 4 4 4 4 4 4 5 5 5 4 5 5 5 7
4 4 5 3 4 4 3 3 3 5 5 6 6 6 5 5 5 6 5 5 6 5 4 4 4 4 4 4 4 3 3 4 3 4 5 4 4 6 5 4 4 6 4
5 4 5 4 4 4 3 2 3 5 7 8 8 7 5 5 6 5 5 5 5 5 5 4 3 4 5 6 6 7 7 8 6 8 4 5 5 7 5 4 3 2 5
4 4 3 3 4 4 3 4 6 7 8 8 7 6 5 5 5 5 5 6 5 5 5 4 5 6 6 5 6 8 8 8 8 9 5 5 5 5 4 5 7 3 3
Wind_Direction
160 150 156 162 153 149 149 151 162 196 248 263 275 296 302 291 297 305 295 292 307 310 292 280 278 276 276 276 268 263 258 245 248 272 260 257 248 230 238 225 232 228 222
157 156 161 150 151 146 155 162 171 218 242 245 260 306 301 290 295 295 318 325 305 295 290 285 284 287 284 275 267 265 261 256 246 257 260 264 261 251 234 226 234 235 211
157 149 149 152 155 158 176 176 187 219 258 288 279 115 280 299 328 354 356 301 290 284 293 287 287 288 280 274 266 265 262 257 259 254 265 259 267 262 228 234 218 229 229
142 141 153 162 165 175 197 191 195 210 216 218 177 264 284 314 357 4 318 309 301 294 291 288 286 284 278 277 268 264 258 246 242 244 252 257 260 252 228 214 217 216 230
143 145 157 168 175 210 214 202 201 200 220 161 243 317 320 340 41 318 318 300 297 297 294 292 289 283 288 280 273 268 250 237 239 233 246 248 242 244 221 200 225 220 228
138 153 162 183 209 201 197 195 210 219 181 193 271 325 319 326 328 315 327 312 307 301 302 304 303 301 301 291 283 268 255 237 230 228 237 246 235 220 224 217 210 199 240
159 172 173 181 195 189 193 189 201 226 136 217 319 318 299 291 296 324 322 312 305 303 308 315 319 315 317 300 295 268 257 249 240 233 235 238 258 221 212 218 214 212 226
160 167 186 195 196 167 174 185 158 125 208 260 284 291 292 257 308 322 317 301 305 311 312 324 323 329 328 320 287 258 246 241 234 231 232 236 240 253 227 220 216 217 164
167 180 193 183 192 160 167 181 171 178 188 221 256 285 275 269 334 310 306 314 326 312 321 327 330 337 342 342 316 241 256 253 240 234 231 225 222 230 238 155 210 187 206
180 186 168 182 174 164 172 175 186 181 207 241 271 259 234 257 320 306 315 326 327 325 327 341 340 344 354 345 338 288 278 278 254 232 218 215 211 221 229 233 199 201 170
144 145 163 193 168 162 153 178 199 198 245 247 257 290 213 294 316 302 336 345 321 311 338 332 329 338 348 349 351 6 344 340 20 154 165 160 180 200 210 215 213 213 161
123 127 177 177 152 160 190 233 231 197 223 253 218 162 229 332 295 305 341 336 330 312 346 333 328 342 341 342 5 4 12 14 38 41 54 52 65 108 122 120 102 63 56
122 138 141 173 161 159 193 225 201 218 220 253 171 152 257 337 315 320 340 331 330 341 320 321 321 349 359 2 359 9 21 23 27 40 35 35 41 32 78 75 78 82 66
148 160 188 183 182 191 207 124 185 216 236 227 157 140 112 314 327 338 345 333 335 351 343 342 330 347 25 9 12 14 17 21 29 33 34 35 40 39 51 46 56 53 66
152 185 175 204 211 65 79 21 56 212 225 160 175 126 166 48 307 312 276 322 339 329 333 358 352 13 16 11 9 9 9 16 18 17 23 32 39 42 43 39 44 48 58
171 185 203 208 63 54 6 46 39 27 341 113 120 153 203 123 6 6 5 12 11 19 17 17 6 13 20 19 11 10 11 9 11 16 23 21 26 29 32 34 35 41 43
187 199 183 128 65 270 212 184 151 27 47 84 133 152 130 143 56 28 357 27 28 34 28 24 16 14 15 19 20 12 12 3 7 17 19 21 15 19 27 29 22 26 26
194 183 158 148 252 236 219 175 148 156 155 155 209 170 224 161 76 33 352 346 18 36 38 29 22 16 16 17 17 16 10 8 13 16 15 16 17 21 20 27 32 35 35
198 212 210 221 221 221 152 145 154 145 174 176 165 154 223 204 12 356 11 41 57 46 36 46 28 23 17 16 14 12 20 13 10 11 10 9 11 20 23 22 30 37 36
242 241 183 185 158 140 147 156 157 168 172 183 205 194 135 110 145 78 9 24 65 65 61 57 36 29 24 15 14 13 15 14 11 10 6 6 4 18 25 22 24 23 17
191 166 168 169 179 162 162 160 162 174 176 189 150 199 164 134 130 161 119 61 85 91 81 70 51 39 23 18 13 16 18 8 7 3 1 359 358 10 10 22 23 19 17
130 186 163 174 174 184 165 140 142 149 163 121 114 90 94 94 112 109 86 77 83 92 84 85 77 58 34 26 15 15 16 9 2 358 351 351 355 4 9 23 18 18 25
180 172 155 157 161 99 91 120 153 151 131 110 120 112 101 108 109 90 85 95 94 88 84 88 85 61 29 27 28 26 27 5 330 327 333 338 343 353 3 20 18 20 23
144 139 129 129 118 105 116 131 154 182 154 147 124 113 112 107 95 83 84 95 94 88 87 92 90 84 51 26 9 12 4 350 322 318 322 329 350 360 14 15 17 25 23
120 135 131 136 98 81 119 143 112 88 97 108 111 107 106 97 83 76 85 92 101 110 101 99 89 77 55 34 23 12 352 351 352 344 336 348 20 13 1 10 2 15 26
122 109 118 156 155 171 131 98 91 94 98 101 103 100 101 99 95 86 91 101 101 105 119 109 95 70 45 25 10 3 1 355 354 348 346 4 24 10 4 1 8 15 10